Weather History for Ephrata, WA

Change the Weather History Date:

Friday, June 14, 2013

  Actual Average Record
Temperature  
Mean Temperature 63 °F 66 °F  
Max Temperature 75 °F 79 °F 100 °F (1974)
Min Temperature 51 °F 53 °F 44 °F (1994)
Degree Days  
Heating Degree Days 2 2  
Month to date heating degree days 19 37  
Since 1 June heating degree days 19 37  
Since 1 July heating degree days 5515 5946  
Cooling Degree Days 0 3  
Month to date cooling degree days 43 36  
Year to date cooling degree days 100 73  
Since 1 June cooling degree days 43 36  
Growing Degree Days 14 (Base 50)    
Moisture  
Dew Point 36 °F    
Average Humidity 39    
Maximum Humidity 54    
Minimum Humidity 23    
Precipitation  
Precipitation 0.00 in 0.02 in 0.76 in (1956)
Month to date precipitation T 0.33  
Year to date precipitation 2.22 3.79  
Sea Level Pressure  
Sea Level Pressure 30.05 in    
Wind  
Wind Speed 8 mph (SW)    
Max Wind Speed 21 mph    
Max Gust Speed 26 mph    
Visibility 10 miles    
Events      
T = Trace of Precipitation, MM = Missing Value Source: NWS Daily Summary

Daily Weather History Graph

Daily Weather History Graph

Search for Another Location

Airport:

Trip Planner

Search our weather history database for the weather conditions in past years. The results will help you decide how hot, cold, wet, or windy it might be!

Date:

Astronomy

Jun. 14, 2013 Rise Set
Actual Time 5:01 AM PDT 8:55 PM PDT
Civil Twilight 4:20 AM PDT 9:36 PM PDT
Nautical Twilight 3:25 AM PDT 10:31 PM PDT
Astronomical Twilight 2:01 AM PDT 11:56 PM PDT
Moon 11:01 AM PDT (6/14) No Moon Set
Length of Visible Light 17h 15m
Length of Day
15h 54m
Waxing Crescent, 31% of the Moon is Illuminated
Jun 14
Waxing Crescent
Jun 16
First Quarter
Jun 23
Full
Jun 29
Last Quarter
Jul 8
New

Hourly Weather History & Observations

Time (PDT) Temp. Dew Point Humidity Pressure Visibility Wind Dir Wind Speed Gust Speed Precip Events Conditions
12:53 AM 55.9 °F 37.0 °F 49% 30.06 in 10.0 mi NW 11.5 mph - N/A   Overcast
1:53 AM 55.0 °F 37.0 °F 51% 30.06 in 10.0 mi NW 10.4 mph - N/A   Clear
2:53 AM 55.9 °F 35.1 °F 45% 30.05 in 10.0 mi WNW 16.1 mph 25.3 mph N/A   Scattered Clouds
3:53 AM 54.0 °F 35.1 °F 49% 30.06 in 10.0 mi NW 17.3 mph - N/A   Clear
4:53 AM 55.0 °F 35.1 °F 47% 30.07 in 10.0 mi NW 17.3 mph - N/A   Mostly Cloudy
5:53 AM 55.0 °F 36.0 °F 49% 30.09 in 10.0 mi WNW 4.6 mph - N/A   Scattered Clouds
6:53 AM 54.0 °F 37.9 °F 55% 30.10 in 10.0 mi Calm Calm - N/A   Clear
7:53 AM 59.0 °F 36.0 °F 42% 30.11 in 10.0 mi West 3.5 mph - N/A   Clear
8:53 AM 62.1 °F 36.0 °F 38% 30.11 in 10.0 mi SE 3.5 mph - N/A   Clear
9:53 AM 66.0 °F 36.0 °F 33% 30.10 in 10.0 mi Variable 3.5 mph - N/A   Clear
10:53 AM 68.0 °F 36.0 °F 31% 30.09 in 10.0 mi Variable 5.8 mph - N/A   Clear
11:53 AM 68.0 °F 36.0 °F 31% 30.09 in 10.0 mi Variable 4.6 mph 17.3 mph N/A   Clear
12:53 PM 70.0 °F 35.1 °F 28% 30.09 in 10.0 mi SSW 9.2 mph - N/A   Clear
1:53 PM 73.0 °F 37.0 °F 27% 30.07 in 10.0 mi South 11.5 mph 20.7 mph N/A   Clear
2:53 PM 73.0 °F 35.1 °F 25% 30.06 in 10.0 mi SW 10.4 mph 18.4 mph N/A   Clear
3:53 PM 75.0 °F 35.1 °F 23% 30.04 in 10.0 mi SSW 8.1 mph - N/A   Clear
4:53 PM 73.9 °F 35.1 °F 24% 30.02 in 10.0 mi SW 9.2 mph 16.1 mph N/A   Clear
5:53 PM 73.9 °F 35.1 °F 24% 30.00 in 10.0 mi South 10.4 mph - N/A   Clear
6:53 PM 73.0 °F 35.1 °F 25% 29.99 in 10.0 mi South 11.5 mph - N/A   Clear
7:53 PM 71.1 °F 35.1 °F 27% 29.99 in 10.0 mi South 9.2 mph - N/A   Clear
8:53 PM 66.9 °F 39.0 °F 36% 29.99 in 10.0 mi SE 8.1 mph - N/A   Clear
9:53 PM 60.1 °F 39.0 °F 46% 30.01 in 10.0 mi SSE 3.5 mph - N/A   Clear
10:53 PM 62.1 °F 37.9 °F 41% 30.01 in 10.0 mi Calm Calm - N/A   Clear
11:53 PM 57.9 °F 37.0 °F 46% 30.01 in 10.0 mi Calm Calm - N/A   Clear